Location: ?????????
(55.6553°N, 38.9075°E)
Time: 20:15:52
(UTC+00:00)

NOSS 3-4 (C) - Pass Details

Date: 18 October 2019
Orbit: 908 x 1304 km, 63.4° (Epoch: 10 November)

Event Time Altitude Azimuth Distance (km) Brightness Sun altitude
Rises 02:59:21 0° 225° (SW) 3,544 6.0 -9.3°
Reaches altitude 10° 03:01:48 10° 225° (SW) 2,624 5.4 -8.9°
Maximum altitude 03:07:54 83° 139° (SE) 981 3.6 -8.1°
Drops below altitude 10° 03:14:31 10° 52° (NE) 2,836 6.7 -7.1°
Sets 03:17:15 0° 52° (NE) 3,850 7.4 -6.8°
